INTELSAT 33E DEB, 64405

Orbit data source: Space-Track

INTELSAT 33E DEB, 64405 is space debris in GEO originally from a launch on Wed, 24 Aug 2016 UTC launched from the French Guiana (FRGUI). Debris objects in space refer to the collection of defunct objects orbiting the Earth. Examples of debris include non-operational satellites, rocket bodies, and fragments generated from explosions, collisions, or faulty payload assembly.

Not visible in the next 10 days
Identifier
64405, 2016-053AK
Orbit
GEO
Last TLE update
1 day ago
Origin
Flag of UnknownINTELU (Unknown / ITSO)
Manufacturer
Boeing/ES
Mission
Spacecraft
Bus & Motor
Unknown
Mass
Unknown
Launch date (UTC)
2016-08-24 (9 years ago)
Launch vehicle
Unknown
Launch site
French Guiana (FRGUI)
Object type
Payload
Rocket body
Debris
Shape & HBR
Unknown
Radar Cross Section
RCS unknown

Expand to show TLE details & history

TLE from 1 day ago
0 INTELSAT 33E DEB
1 64405U 16053AK  25181.01420466  .00000027  00000-0  00000-0 0  9993
2 64405   0.8333 108.0243 0084174   1.9173 250.9543  0.99498190  2404
Epoch: 2025-06-30T00:20Z
TLE epoch observation values (Epoch: 2025-06-30T00:20:27.282Z)
Latitude
-0.80126°
Longitude
76.55459°
Altitude
36,123.415 km
Speed
3.058 km/s
True Right ascension
23h 59m 59s
True Declination
0° 48' 02"
Sunlit
Object was in daylight at epoch
Visualization orbit readout
Latitude
0.3704°
Longitude
-150.56126°
Altitude
35,674.237 km
Speed
3.091 km/s
Apparent Right ascension
08h 51m 53s
Apparent Declination
-4° 37' 35"
Sunlit
Object is in daylight
Visualization observer readout
Local Sidereal Time
20:54:59
Azimuth
1.335° NNE
Elevation
-54.703°
Doppler factor
1
Orbital elements
Apogee altitude
36,362.694 km
Perigee altitude
35,649.167 km
Semi-major axis
42,384.068 km
Eccentricity
0.00842
Inclination
0.8333°
RAAN
108.0243°
Arg. of periapsis
1.9173°
True anomaly
Unknown
Mean anomaly
250.9543°
Eccentric anomaly
Unknown
Mean motion
0.24874 °/min
Orbital period
1,447.32 mins
BSTAR
0
Loading historical data...
64405 neighbors
Loading maneuver chart data...
Loading SW <> Apogee altitude chart data...
Loading historical data...
Loading historical data...
Loading historical data...
Loading historical data...
Loading historical data...
Loading historical data...
Loading historical data...

INTELSAT 33E DEB Visibility

Observer location: undefined°, undefined°

INTELSAT 33E DEB is likely not visible in the next few days
Span
Click to sort rows by Start time (UTC) header in descending order
Start Az.
Max El. time (UTC)
Max El. Az.
Max El.
End time (UTC)
End Az.
|